• In Netherlands
  • List of Countries
  • For 7 days
  • Water Temperature
  • Satellite Maps
  • Weather Map
  • Weather Widgets
  • user-avatar
    Login

    Hourly Weather Heidelberg

    Today, 16 August, Thursday

    Time Temperature Precipitation Wind Pressure Humidity
    00:00 +17°C° 0 mm 0 mps 735 mmHg 73%
    01:00 +17°C° 0 mm 0 mps 735 mmHg 74%
    02:00 +16°C° 0 mm 0 mps 735 mmHg 76%
    03:00 +16°C° 0 mm 0 mps 735 mmHg 77%
    04:00 +16°C° 0 mm 0 mps 735 mmHg 78%
    05:00 +16°C° 0 mm 0 mps 735 mmHg 76%
    06:00 +17°C° 0 mm 0 mps 735 mmHg 74%
    07:00 +19°C° 0 mm 1 mps 734 mmHg 68%
    08:00 +22°C° 0 mm 1 mps 734 mmHg 62%
    09:00 +24°C° 0 mm 1 mps 734 mmHg 56%
    10:00 +26°C° 0 mm 1 mps 734 mmHg 50%
    11:00 +28°C° 0 mm 1 mps 734 mmHg 46%
    12:00 +29°C° 0 mm 1 mps 734 mmHg 42%
    13:00 +30°C° 0 mm 1 mps 733 mmHg 38%
    14:00 +30°C° 0 mm 1 mps 733 mmHg 37%
    15:00 +31°C° 0 mm 1 mps 733 mmHg 36%
    16:00 +31°C° 0 mm 1 mps 733 mmHg 35%
    17:00 +30°C° 0 mm 1 mps 732 mmHg 39%
    18:00 +28°C° 0 mm 1 mps 732 mmHg 44%
    19:00 +25°C° 0 mm 0 mps 732 mmHg 48%
    20:00 +25°C° 0 mm 1 mps 732 mmHg 51%
    21:00 +24°C° 0 mm 1 mps 732 mmHg 54%
    22:00 +23°C° 0 mm 1 mps 732 mmHg 57%
    23:00 +22°C° 0 mm 1 mps 732 mmHg 60%

    Tomorrow, 17 August, Friday

    Time Temperature Precipitation Wind Pressure Humidity
    00:00 +22°C° 0 mm 1 mps 732 mmHg 63%
    01:00 +21°C° 0 mm 1 mps 732 mmHg 66%
    02:00 +21°C° 0 mm 1 mps 732 mmHg 68%
    03:00 +20°C° 0 mm 1 mps 732 mmHg 70%
    04:00 +20°C° 0 mm 1 mps 731 mmHg 73%
    05:00 +20°C° 0 mm 1 mps 732 mmHg 72%
    06:00 +21°C° 0 mm 1 mps 732 mmHg 70%
    07:00 +21°C° 0 mm 1 mps 732 mmHg 69%
    08:00 +23°C° 0.1 mm 1 mps 732 mmHg 63%
    09:00 +25°C° 0.1 mm 1 mps 733 mmHg 57%
    10:00 +27°C° 0.1 mm 1 mps 733 mmHg 51%
    11:00 +28°C° 0 mm 1 mps 733 mmHg 48%
    12:00 +29°C° 0 mm 1 mps 733 mmHg 45%
    13:00 +30°C° 0 mm 1 mps 733 mmHg 42%
    14:00 +30°C° 0.2 mm 2 mps 733 mmHg 44%
    15:00 +29°C° 0.2 mm 2 mps 733 mmHg 46%
    16:00 +28°C° 0.2 mm 2 mps 733 mmHg 49%
    17:00 +27°C° 0 mm 3 mps 733 mmHg 53%
    18:00 +26°C° 0 mm 3 mps 733 mmHg 58%
    19:00 +25°C° 0 mm 3 mps 733 mmHg 62%
    20:00 +22°C° 1.3 mm 3 mps 734 mmHg 69%
    21:00 +21°C° 1.3 mm 3 mps 734 mmHg 76%
    22:00 +19°C° 1.3 mm 3 mps 735 mmHg 83%
    23:00 +19°C° 0.3 mm 2 mps 735 mmHg 84%

    Day after tomorrow, 18 August, Saturday

    Time Temperature Precipitation Wind Pressure Humidity
    00:00 +18°C° 0.3 mm 2 mps 735 mmHg 85%
    01:00 +18°C° 0.3 mm 2 mps 735 mmHg 86%
    02:00 +17°C° 0 mm 2 mps 735 mmHg 87%
    03:00 +17°C° 0 mm 2 mps 736 mmHg 87%
    04:00 +17°C° 0 mm 2 mps 736 mmHg 87%
    05:00 +17°C° 0 mm 2 mps 736 mmHg 86%
    06:00 +17°C° 0 mm 2 mps 736 mmHg 84%
    07:00 +17°C° 0 mm 2 mps 737 mmHg 82%
    08:00 +19°C° 0 mm 2 mps 737 mmHg 76%
    09:00 +20°C° 0 mm 2 mps 737 mmHg 69%
    10:00 +23°C° 0 mm 2 mps 737 mmHg 63%
    11:00 +24°C° 0 mm 2 mps 737 mmHg 58%
    12:00 +25°C° 0 mm 2 mps 737 mmHg 52%
    13:00 +26°C° 0 mm 2 mps 737 mmHg 47%
    14:00 +27°C° 0 mm 2 mps 737 mmHg 44%
    15:00 +27°C° 0 mm 2 mps 737 mmHg 41%
    16:00 +27°C° 0 mm 2 mps 736 mmHg 38%
    17:00 +26°C° 0 mm 2 mps 736 mmHg 42%
    18:00 +25°C° 0 mm 1 mps 737 mmHg 45%
    19:00 +24°C° 0 mm 1 mps 737 mmHg 49%
    20:00 +22°C° 0 mm 1 mps 737 mmHg 50%
    21:00 +21°C° 0 mm 1 mps 737 mmHg 52%
    22:00 +20°C° 0 mm 1 mps 738 mmHg 54%
    23:00 +19°C° 0 mm 1 mps 738 mmHg 56%

    19 August, Sunday

    Time Temperature Precipitation Wind Pressure Humidity
    00:00 +19°C° 0 mm 1 mps 738 mmHg 58%
    01:00 +18°C° 0 mm 1 mps 738 mmHg 59%
    02:00 +18°C° 0 mm 1 mps 738 mmHg 61%
    03:00 +16°C° 0 mm 1 mps 737 mmHg 63%
    04:00 +16°C° 0 mm 1 mps 737 mmHg 65%
    05:00 +18°C° 0 mm 1 mps 738 mmHg 65%
    06:00 +18°C° 0 mm 1 mps 738 mmHg 64%
    07:00 +19°C° 0 mm 1 mps 738 mmHg 64%
    08:00 +19°C° 0 mm 0 mps 738 mmHg 58%
    09:00 +21°C° 0 mm 0 mps 738 mmHg 52%
    10:00 +24°C° 0 mm 0 mps 738 mmHg 46%
    11:00 +25°C° 0 mm 0 mps 738 mmHg 42%
    12:00 +26°C° 0 mm 0 mps 738 mmHg 39%
    13:00 +29°C° 0 mm 1 mps 738 mmHg 35%
    14:00 +29°C° 0 mm 1 mps 737 mmHg 34%
    15:00 +29°C° 0 mm 1 mps 737 mmHg 34%
    16:00 +29°C° 0 mm 1 mps 737 mmHg 33%
    17:00 +28°C° 0 mm 1 mps 736 mmHg 37%
    18:00 +26°C° 0 mm 1 mps 736 mmHg 42%
    19:00 +23°C° 0 mm 0 mps 736 mmHg 46%
    20:00 +22°C° 0 mm 0 mps 736 mmHg 48%
    21:00 +21°C° 0 mm 0 mps 736 mmHg 50%
    22:00 +20°C° 0 mm 0 mps 737 mmHg 51%
    23:00 +19°C° 0 mm 0 mps 736 mmHg 53%

    20 August, Monday

    Time Temperature Precipitation Wind Pressure Humidity
    00:00 +21°C° 0 mm 1 mps 736 mmHg 55%
    01:00 +20°C° 0 mm 1 mps 736 mmHg 57%
    02:00 +20°C° 0 mm 1 mps 736 mmHg 59%
    03:00 +19°C° 0 mm 1 mps 736 mmHg 61%
    04:00 +19°C° 0 mm 1 mps 736 mmHg 63%
    05:00 +20°C° 0 mm 1 mps 736 mmHg 64%
    06:00 +20°C° 0 mm 1 mps 736 mmHg 64%
    07:00 +21°C° 0 mm 1 mps 736 mmHg 64%
    08:00 +22°C° 0 mm 1 mps 736 mmHg 59%
    09:00 +24°C° 0 mm 2 mps 737 mmHg 55%
    10:00 +26°C° 0 mm 2 mps 737 mmHg 50%
    11:00 +27°C° 0 mm 2 mps 737 mmHg 47%
    12:00 +28°C° 0 mm 3 mps 736 mmHg 44%
    13:00 +29°C° 0 mm 3 mps 736 mmHg 41%
    14:00 +29°C° 0 mm 3 mps 736 mmHg 41%
    15:00 +29°C° 0 mm 3 mps 736 mmHg 41%
    16:00 +30°C° 0 mm 3 mps 736 mmHg 42%
    17:00 +28°C° 0 mm 3 mps 736 mmHg 48%
    18:00 +27°C° 0 mm 3 mps 736 mmHg 54%
    19:00 +25°C° 0 mm 2 mps 735 mmHg 60%
    20:00 +24°C° 0 mm 2 mps 736 mmHg 64%
    21:00 +23°C° 0 mm 2 mps 736 mmHg 68%
    22:00 +21°C° 0 mm 1 mps 736 mmHg 73%
    23:00 +21°C° 0 mm 1 mps 736 mmHg 75%

    21 August, Tuesday

    Time Temperature Precipitation Wind Pressure Humidity
    00:00 +20°C° 0 mm 1 mps 736 mmHg 78%
    01:00 +19°C° 0 mm 1 mps 736 mmHg 80%
    02:00 +17°C° 0 mm 0 mps 736 mmHg 82%
    03:00 +17°C° 0 mm 0 mps 736 mmHg 83%
    04:00 +16°C° 0 mm 0 mps 736 mmHg 85%
    05:00 +17°C° 0 mm 0 mps 736 mmHg 82%
    06:00 +18°C° 0 mm 0 mps 736 mmHg 80%
    07:00 +18°C° 0 mm 0 mps 736 mmHg 78%
    08:00 +20°C° 0 mm 0 mps 736 mmHg 70%
    09:00 +22°C° 0 mm 0 mps 736 mmHg 63%
    10:00 +25°C° 0 mm 0 mps 736 mmHg 56%
    11:00 +28°C° 0 mm 1 mps 736 mmHg 52%
    12:00 +28°C° 0 mm 1 mps 735 mmHg 48%
    13:00 +29°C° 0 mm 1 mps 735 mmHg 44%
    14:00 +30°C° 0 mm 1 mps 735 mmHg 42%
    15:00 +30°C° 0 mm 2 mps 734 mmHg 41%
    16:00 +30°C° 0 mm 2 mps 734 mmHg 40%
    17:00 +29°C° 0 mm 1 mps 734 mmHg 45%
    18:00 +27°C° 0 mm 1 mps 733 mmHg 49%
    19:00 +26°C° 0 mm 1 mps 733 mmHg 54%
    20:00 +25°C° 0 mm 1 mps 733 mmHg 57%
    21:00 +24°C° 0 mm 1 mps 734 mmHg 60%
    22:00 +23°C° 0 mm 1 mps 734 mmHg 63%
    23:00 +22°C° 0 mm 1 mps 734 mmHg 67%
    Show more